Last updated on Nov. 21, 2020, 6:02 a.m. UTC
1 43589U 98067PD 20325.00934518 .09147399 12394-4 58853-3 0 9998 2 43589 51.6128 191.6935 0007320 255.9940 104.0273 16.40872661130679
Satellite is not in orbit.